Flag for Chile Weather past 2 weeks in Santiago, Chile

Now
81 °F

Passing clouds.


Feels Like: 80 °F
Forecast: 54 / 84 °F
Wind: 13 mph from South

Location: Pudahuel

Current Time: Mar 4, 2015 at 2:52:25 PM

Latest Report: Mar 4, 2015 at 2:00 PM


Visibility: N/A

Pressure: 29.92 "Hg

Humidity: 34%

Dew point: 50 °F

Location of SantiagoLocation

Historic Weather in Santiago — Graph

°F

Santiago temperature yesterday

Maximum temperature yesterday: 84 °F (at 4:00 PM)
Minimum temperature yesterday: 52 °F (at 8:00 AM)
Average temperature yesterday: 67 °F

Past Weeks' High & Low Weather Summary

 TemperatureHumidityPressure
High90 °F (Feb 17, 4:00 PM)100% (Feb 21, 1:00 PM)30.07 "Hg (Feb 21, 1:00 PM)
Low36 °F (Feb 21, 1:00 PM)16% (Feb 17, 4:00 PM)29.06 "Hg (Feb 21, 1:00 PM)
Average67 °F55%29.95 "Hg
* Reported Feb 17 2:00 PM — Mar 4 2:00 PM, Santiago, Weather by CustomWeather, © 2015

Note: Actual official high and low records may vary slightly from our data, if they occured in-between our weather recording intervals... More about our weather records

Advertising

Santiago weather history for previous 24 hours

 ConditionsComfort  
Time TempWeatherWind HumidityBarometerVisibility
2:00 PM
Wed, Mar 4
81 °FPassing clouds.13 mph34%29.92 "HgN/A
1:00 PM77 °FPassing clouds.6 mph39%29.92 "HgN/A
12:00 PM73 °FSunny.3 mph44%29.92 "Hg10 mi
11:00 AM68 °FSunny.2 mph53%29.92 "Hg10 mi
10:00 AM64 °FSunny.2 mph60%29.92 "Hg10 mi
9:00 AM57 °FSunny.1 mph72%29.92 "Hg10 mi
8:00 AM54 °FSunny.2 mph77%29.89 "Hg10 mi
7:00 AM57 °FClear.3 mph72%29.89 "Hg10 mi
6:00 AM57 °FPassing clouds.3 mph77%29.89 "HgN/A
5:00 AM59 °FClear.2 mph68%29.89 "Hg10 mi
4:00 AM61 °FClear.5 mph63%29.89 "Hg10 mi
3:00 AM63 °FClear.6 mph59%29.92 "Hg10 mi
2:00 AM63 °FClear.7 mph59%29.92 "Hg10 mi
1:00 AM63 °FClear.8 mph59%29.92 "Hg10 mi
12:00 AM64 °FClear.9 mph56%29.92 "Hg10 mi
11:00 PM
Tue, Mar 3
66 °FClear.12 mph56%29.95 "Hg10 mi
10:00 PM68 °FClear.10 mph53%29.92 "Hg10 mi
9:00 PM72 °FClear.15 mph47%29.89 "Hg10 mi
8:00 PM75 °FSunny.16 mph41%29.89 "Hg10 mi
7:00 PM79 °FSunny.17 mph39%29.89 "Hg10 mi
6:00 PM82 °FSunny.17 mph35%29.89 "Hg10 mi
5:00 PM84 °FPassing clouds.13 mph31%29.89 "HgN/A
4:00 PM84 °FPassing clouds.13 mph31%29.89 "HgN/A
3:00 PM81 °FPassing clouds.12 mph34%29.92 "HgN/A
2:00 PM79 °FPassing clouds.8 mph39%29.92 "HgN/A
Weather by CustomWeather, © 2015

See weather overviewHow to use our weather pages